USA 57

Satellite information

Favourite Embed

Satellite Type and Status

PAYLOADIN ORBIT

Key statistics

Satellite USA 57 at a glance.

Uptime

12934

Days in orbit

Revolutions

≈ 14.7

Per day

Orbit

LEO

Low Earth Orbit

Inclination

89.8

Latest

Satellite identification and parameters

Extended collection of information and parameters for USA 57.

Object identification

Identified? True

Debris? False

Object name: USA 57

International designator: 1990-031B

Object number (NORAD): 20561

Object ID (CCSDS): 20561

Country: UNITED STATES OF AMERICA (US)

Current information (Y/N): Y

RCS size: MEDIUM

Orbital parameters

Period: 97.777 minutes

Inclination: 89.84 deg

SMA: 7030.473 km

Apoapsis: 698.811 km

Periapsis: 605.865 km

RAAN: 270.2199 deg

Eccentricy: 0.00661023

Argument of periapsis: 343.2055 deg

Mean anomaly: 16.6975 deg

Mean motion: 14.72739419 rev/day

Mean motion (dot): 0.00001072 rev/day2

B* drag term: 0.00015989298 1/REarth

Two-line elements (TLE)

Creation date: Sept. 7, 2025, 3:09 a.m.

Reference frame: TEME

Reference center: EARTH

Epoch: Sept. 6, 2025, 6:55 p.m. UTC

TLE line 0: 0 USA 57

TLE line 1: 1 20561U 90031B 25249.78881757 .00001072 00000-0 15989-3 0 9995

TLE line 2: 2 20561 89.8400 270.2199 0066102 343.2055 16.6975 14.72739419 73463

Live tracking on map

Real-time ground track for satellite USA 57.

In-orbit conjunctions

There are no conjunctions computed for USA 57, at the moment. Check back to stay up to date, as we update our databases every day.

Go to all conjunctions

Associated space launch

POGS & SSR was a satellite designed to measure the Earth's magnetic field. TEX and SCE studied ionospheric effects on RF transmissions.

USA 57 was lifted into orbit during the mission ‘Atlas E Altair | POGS & SSR, TEX, SCE’, on board a Atlas E Altair space rocket.

The launch took place on April 11, 1990, 3 p.m. from Space Launch Complex 3W.

For more information about the launch, click the button.

Launch to space Atlas E Altair | POGS & SSR, TEX, SCE
Atlas E Altair | POGS & SSR, TEX, SCE

Agency: N/A

Status: Launch Successful

Launch date: April 11, 1990, 3 p.m. UTC

Rocket: Atlas E Altair

Launch pad: Space Launch Complex 3W

Location: Vandenberg SFB, CA, USA

...

Latest news about this satellite

There are no fresh news available about this satellite. Check back as we update our databases every day.


Newsletter sign-up

Weekly statistics, charts and insights to help you stay on top of the space industry.